Time,TemperatureF,DewpointF,PressureIn,WindDirection,WindDirectionDegrees,WindSpeedMPH,WindSpeedGustMPH,Humidity,HourlyPrecipIn,Conditions,Clouds,dailyrainin,SoftwareType,DateUTC
2013-01-28 00:00:00,68.8,63.7,29.95,South,180,10.1,10.1,84,0.00,,,0.00,WUHU216HW,2013-01-28 06:00:00,
2013-01-28 00:01:00,68.8,63.7,29.95,South,180,10.1,10.1,84,0.00,,,0.00,WUHU216HW,2013-01-28 06:01:00,
2013-01-28 00:06:00,68.8,63.7,29.95,South,180,10.1,10.1,84,0.00,,,0.00,WUHU216HW,2013-01-28 06:06:00,
2013-01-28 01:00:00,68.6,63.9,29.97,SSW,203,7.2,7.2,85,0.00,,,0.00,WUHU216HW,2013-01-28 07:00:00,
2013-01-28 01:01:00,68.6,63.9,29.97,SSW,203,7.2,7.2,85,0.00,,,0.00,WUHU216HW,2013-01-28 07:01:00,
2013-01-28 01:06:00,68.6,63.9,29.97,SSW,203,7.2,7.2,85,0.00,,,0.00,WUHU216HW,2013-01-28 07:06:00,
2013-01-28 02:00:00,68.2,63.9,29.96,South,180,6.0,6.0,86,0.00,,,0.00,WUHU216HW,2013-01-28 08:00:00,
2013-01-28 02:01:00,68.2,63.9,29.96,South,180,6.0,6.0,86,0.00,,,0.00,WUHU216HW,2013-01-28 08:01:00,
2013-01-28 02:06:00,68.2,63.9,29.96,South,180,6.0,6.0,86,0.00,,,0.00,WUHU216HW,2013-01-28 08:06:00,
2013-01-28 03:00:00,68.2,63.6,29.95,South,180,6.3,6.3,85,0.00,,,0.00,WUHU216HW,2013-01-28 09:00:00,
2013-01-28 03:01:00,68.2,63.6,29.95,South,180,6.3,6.3,85,0.00,,,0.00,WUHU216HW,2013-01-28 09:01:00,
2013-01-28 03:06:00,68.2,63.6,29.95,South,180,6.3,6.3,85,0.00,,,0.00,WUHU216HW,2013-01-28 09:06:00,
2013-01-28 04:00:00,68.0,63.7,29.95,South,180,5.6,5.6,86,0.00,,,0.00,WUHU216HW,2013-01-28 10:00:00,
2013-01-28 04:01:00,68.0,63.7,29.95,South,180,5.6,5.6,86,0.00,,,0.00,WUHU216HW,2013-01-28 10:01:00,
2013-01-28 04:06:00,68.0,63.7,29.95,South,180,5.6,5.6,86,0.00,,,0.00,WUHU216HW,2013-01-28 10:06:00,
2013-01-28 05:00:00,67.7,64.0,29.95,South,180,7.8,7.8,88,0.00,,,0.00,WUHU216HW,2013-01-28 11:00:00,
2013-01-28 05:01:00,67.7,64.0,29.95,South,180,7.8,7.8,88,0.00,,,0.00,WUHU216HW,2013-01-28 11:01:00,
2013-01-28 05:06:00,67.7,64.0,29.95,South,180,7.8,7.8,88,0.00,,,0.00,WUHU216HW,2013-01-28 11:06:00,
2013-01-28 06:01:00,67.3,63.3,29.95,SSE,158,3.8,3.8,87,0.00,,,0.00,WUHU216HW,2013-01-28 12:01:00,
2013-01-28 06:06:00,67.3,63.3,29.95,SE,135,4.9,4.9,87,0.00,,,0.00,WUHU216HW,2013-01-28 12:06:00,
2013-01-28 06:11:00,67.3,63.3,29.95,South,180,3.4,4.9,87,0.00,,,0.00,WUHU216HW,2013-01-28 12:11:00,
2013-01-28 06:17:00,67.3,63.3,29.95,SSE,158,4.0,5.4,87,0.00,,,0.00,WUHU216HW,2013-01-28 12:17:00,
2013-01-28 06:22:00,67.1,63.1,29.95,SE,135,4.7,7.8,87,0.00,,,0.00,WUHU216HW,2013-01-28 12:22:00,
2013-01-28 06:27:00,67.1,63.1,29.95,SSE,158,4.9,7.8,87,0.00,,,0.00,WUHU216HW,2013-01-28 12:27:00,
2013-01-28 06:32:00,67.1,63.1,29.95,SSE,158,4.5,6.0,87,0.00,,,0.00,WUHU216HW,2013-01-28 12:32:00,
2013-01-28 06:37:00,67.1,63.1,29.95,SSE,158,4.9,6.3,87,0.00,,,0.00,WUHU216HW,2013-01-28 12:37:00,
2013-01-28 06:42:00,67.0,63.3,29.95,SSE,158,6.3,6.3,88,0.00,,,0.00,WUHU216HW,2013-01-28 12:42:00,
2013-01-28 06:47:00,67.0,63.3,29.96,SE,135,3.6,6.3,88,0.00,,,0.00,WUHU216HW,2013-01-28 12:47:00,
2013-01-28 06:52:00,67.0,63.3,29.96,SE,135,6.3,7.6,88,0.00,,,0.00,WUHU216HW,2013-01-28 12:52:00,
2013-01-28 06:57:00,67.0,63.3,29.96,SE,135,6.3,7.6,88,0.00,,,0.00,WUHU216HW,2013-01-28 12:57:00,
2013-01-28 07:02:00,67.0,63.3,29.96,SSE,158,5.4,6.5,88,0.00,,,0.00,WUHU216HW,2013-01-28 13:02:00,
2013-01-28 07:07:00,67.0,63.3,29.96,SE,135,3.1,6.5,88,0.00,,,0.00,WUHU216HW,2013-01-28 13:07:00,
2013-01-28 07:12:00,67.0,63.3,29.96,SE,135,4.3,7.4,88,0.00,,,0.00,WUHU216HW,2013-01-28 13:12:00,
2013-01-28 07:17:00,67.0,63.3,29.96,SE,135,6.9,7.4,88,0.00,,,0.00,WUHU216HW,2013-01-28 13:17:00,
2013-01-28 07:22:00,67.0,63.3,29.96,SE,135,5.1,6.9,88,0.00,,,0.00,WUHU216HW,2013-01-28 13:22:00,
2013-01-28 07:27:00,67.0,63.3,29.97,SSE,158,4.3,5.8,88,0.00,,,0.00,WUHU216HW,2013-01-28 13:27:00,
2013-01-28 07:32:00,67.0,63.3,29.96,SE,135,7.2,7.8,88,0.00,,,0.00,WUHU216HW,2013-01-28 13:32:00,
2013-01-28 07:37:00,66.8,63.1,29.96,South,180,7.6,7.8,88,0.00,,,0.00,WUHU216HW,2013-01-28 13:37:00,
2013-01-28 07:42:00,67.0,63.3,29.96,SE,135,6.7,7.6,88,0.00,,,0.00,WUHU216HW,2013-01-28 13:42:00,
2013-01-28 07:47:00,67.0,63.3,29.96,SE,135,6.7,7.6,88,0.00,,,0.00,WUHU216HW,2013-01-28 13:47:00,
2013-01-28 07:52:00,67.0,63.3,29.96,South,180,6.7,7.6,88,0.00,,,0.00,WUHU216HW,2013-01-28 13:52:00,
2013-01-28 07:57:00,67.0,63.3,29.96,SE,135,7.2,7.6,88,0.00,,,0.00,WUHU216HW,2013-01-28 13:57:00,
2013-01-28 08:02:00,67.0,63.3,29.96,South,180,5.1,8.5,88,0.00,,,0.00,WUHU216HW,2013-01-28 14:02:00,
2013-01-28 08:07:00,67.1,63.5,29.96,SSE,158,5.8,8.5,88,0.00,,,0.00,WUHU216HW,2013-01-28 14:07:00,
2013-01-28 08:12:00,67.1,63.5,29.96,SSE,158,4.7,9.2,88,0.00,,,0.00,WUHU216HW,2013-01-28 14:12:00,
2013-01-28 08:17:00,67.3,63.6,29.96,SE,135,7.6,9.2,88,0.00,,,0.00,WUHU216HW,2013-01-28 14:17:00,
2013-01-28 08:22:00,67.3,63.6,29.96,SSE,158,5.4,8.7,88,0.00,,,0.00,WUHU216HW,2013-01-28 14:22:00,
2013-01-28 08:27:00,67.3,63.6,29.96,SSE,158,6.3,8.5,88,0.00,,,0.00,WUHU216HW,2013-01-28 14:27:00,
2013-01-28 08:32:00,67.5,63.8,29.96,SE,135,6.0,8.5,88,0.00,,,0.00,WUHU216HW,2013-01-28 14:32:00,
2013-01-28 08:37:00,67.5,63.8,29.97,South,180,6.0,8.5,88,0.00,,,0.00,WUHU216HW,2013-01-28 14:37:00,
2013-01-28 08:42:00,67.7,64.0,29.96,SSE,158,7.2,9.8,88,0.00,,,0.00,WUHU216HW,2013-01-28 14:42:00,
2013-01-28 08:47:00,67.9,64.2,29.96,SSE,158,7.4,9.8,88,0.00,,,0.00,WUHU216HW,2013-01-28 14:47:00,
2013-01-28 08:52:00,68.0,64.4,29.96,SSE,158,6.9,9.2,88,0.00,,,0.00,WUHU216HW,2013-01-28 14:52:00,
2013-01-28 08:57:00,68.2,64.5,29.96,SSE,158,6.9,9.2,88,0.00,,,0.00,WUHU216HW,2013-01-28 14:57:00,
2013-01-28 09:02:00,68.6,64.5,29.96,South,180,10.5,10.5,87,0.00,,,0.00,WUHU216HW,2013-01-28 15:02:00,
2013-01-28 09:07:00,68.9,64.9,29.96,South,180,6.7,11.6,87,0.00,,,0.00,WUHU216HW,2013-01-28 15:07:00,
2013-01-28 09:12:00,69.5,65.1,29.96,SE,135,10.7,12.5,86,0.00,,,0.00,WUHU216HW,2013-01-28 15:12:00,
2013-01-28 09:17:00,70.0,65.3,29.96,SSE,158,4.0,12.5,85,0.00,,,0.00,WUHU216HW,2013-01-28 15:17:00,
2013-01-28 09:22:00,70.6,65.4,29.96,South,180,11.2,12.8,84,0.00,,,0.00,WUHU216HW,2013-01-28 15:22:00,
2013-01-28 09:27:00,70.9,65.4,29.96,South,180,10.5,12.8,83,0.00,,,0.00,WUHU216HW,2013-01-28 15:27:00,
2013-01-28 09:32:00,71.5,65.7,29.97,South,180,10.5,11.0,82,0.00,,,0.00,WUHU216HW,2013-01-28 15:32:00,
2013-01-28 09:37:00,71.5,65.7,29.96,South,180,10.1,13.9,82,0.00,,,0.00,WUHU216HW,2013-01-28 15:37:00,
2013-01-28 09:42:00,71.1,65.4,29.96,South,180,12.3,13.9,82,0.00,,,0.00,WUHU216HW,2013-01-28 15:42:00,
2013-01-28 09:47:00,71.1,65.4,29.96,South,180,11.9,13.4,82,0.00,,,0.00,WUHU216HW,2013-01-28 15:47:00,
2013-01-28 09:52:00,71.1,65.4,29.96,SSW,203,8.7,13.6,82,0.00,,,0.00,WUHU216HW,2013-01-28 15:52:00,
2013-01-28 09:57:00,71.1,65.4,29.96,SSE,158,12.8,18.1,82,0.00,,,0.00,WUHU216HW,2013-01-28 15:57:00,
2013-01-28 10:02:00,71.5,65.7,29.96,South,180,10.7,18.1,82,0.00,,,0.00,WUHU216HW,2013-01-28 16:02:00,
2013-01-28 10:07:00,71.8,66.1,29.96,South,180,11.4,14.3,82,0.00,,,0.00,WUHU216HW,2013-01-28 16:07:00,
2013-01-28 10:12:00,72.0,65.9,29.96,South,180,11.2,15.7,81,0.00,,,0.00,WUHU216HW,2013-01-28 16:12:00,
2013-01-28 10:17:00,72.2,66.1,29.96,South,180,11.0,15.7,81,0.00,,,0.00,WUHU216HW,2013-01-28 16:17:00,
2013-01-28 10:22:00,72.5,66.4,29.96,SE,135,6.9,15.0,81,0.00,,,0.00,WUHU216HW,2013-01-28 16:22:00,
2013-01-28 10:27:00,72.7,66.2,29.96,South,180,13.4,13.4,80,0.00,,,0.00,WUHU216HW,2013-01-28 16:27:00,
2013-01-28 10:32:00,73.1,67.0,29.96,South,180,8.3,13.4,81,0.00,,,0.00,WUHU216HW,2013-01-28 16:32:00,
2013-01-28 10:37:00,73.6,67.1,29.96,South,180,10.1,13.4,80,0.00,,,0.00,WUHU216HW,2013-01-28 16:37:00,
2013-01-28 10:42:00,73.4,66.6,29.96,South,180,13.2,13.4,79,0.00,,,0.00,WUHU216HW,2013-01-28 16:42:00,
2013-01-28 10:47:00,73.3,66.8,29.96,SSW,203,13.2,15.4,80,0.00,,,0.00,WUHU216HW,2013-01-28 16:47:00,
2013-01-28 10:52:00,73.4,67.0,29.96,SSW,203,7.6,15.4,80,0.00,,,0.00,WUHU216HW,2013-01-28 16:52:00,
2013-01-28 10:57:00,74.2,66.9,29.95,SSW,203,12.8,15.4,78,0.00,,,0.00,WUHU216HW,2013-01-28 16:57:00,
2013-01-28 11:02:00,74.2,66.9,29.95,SSE,158,11.4,15.4,78,0.00,,,0.00,WUHU216HW,2013-01-28 17:02:00,
2013-01-28 11:07:00,74.0,66.7,29.95,SSE,158,13.6,15.0,78,0.00,,,0.00,WUHU216HW,2013-01-28 17:07:00,
2013-01-28 11:12:00,73.8,66.6,29.95,South,180,14.8,16.8,78,0.00,,,0.00,WUHU216HW,2013-01-28 17:12:00,
2013-01-28 11:17:00,73.8,66.6,29.95,SSW,203,9.6,16.8,78,0.00,,,0.00,WUHU216HW,2013-01-28 17:17:00,
2013-01-28 11:22:00,74.2,66.5,29.95,SSW,203,15.0,15.0,77,0.00,,,0.00,WUHU216HW,2013-01-28 17:22:00,
2013-01-28 11:27:00,74.2,66.5,29.95,South,180,17.4,17.4,77,0.00,,,0.00,WUHU216HW,2013-01-28 17:27:00,
2013-01-28 11:32:00,74.9,66.9,29.94,SSW,203,15.0,17.4,76,0.00,,,0.00,WUHU216HW,2013-01-28 17:32:00,
2013-01-28 11:37:00,75.8,67.3,29.94,South,180,18.1,18.1,75,0.00,,,0.00,WUHU216HW,2013-01-28 17:37:00,
2013-01-28 11:42:00,76.3,67.1,29.94,SSW,203,17.0,18.1,73,0.00,,,0.00,WUHU216HW,2013-01-28 17:42:00,
2013-01-28 11:47:00,76.5,67.2,29.94,SW,225,12.5,17.4,73,0.00,,,0.00,WUHU216HW,2013-01-28 17:47:00,
2013-01-28 11:52:00,76.9,67.1,29.93,SSW,203,10.3,17.4,72,0.00,,,0.00,WUHU216HW,2013-01-28 17:52:00,
2013-01-28 11:57:00,76.9,66.8,29.93,South,180,15.7,15.7,71,0.00,,,0.00,WUHU216HW,2013-01-28 17:57:00,
2013-01-28 12:02:00,76.3,66.7,29.93,SSW,203,8.7,16.6,72,0.00,,,0.00,WUHU216HW,2013-01-28 18:02:00,
2013-01-28 12:07:00,75.6,66.3,29.93,SSW,203,11.9,16.6,73,0.00,,,0.00,WUHU216HW,2013-01-28 18:07:00,
2013-01-28 12:12:00,75.2,66.4,29.92,SSW,203,16.3,16.6,74,0.00,,,0.00,WUHU216HW,2013-01-28 18:12:00,
2013-01-28 12:17:00,75.2,66.8,29.92,SSW,203,13.9,18.6,75,0.00,,,0.00,WUHU216HW,2013-01-28 18:17:00,
2013-01-28 12:22:00,75.8,66.9,29.91,SSW,203,11.2,18.6,74,0.00,,,0.00,WUHU216HW,2013-01-28 18:22:00,
2013-01-28 12:27:00,76.0,66.7,29.91,South,180,15.9,17.2,73,0.00,,,0.00,WUHU216HW,2013-01-28 18:27:00,
2013-01-28 12:32:00,76.0,66.3,29.91,SSW,203,12.3,17.2,72,0.00,,,0.00,WUHU216HW,2013-01-28 18:32:00,
2013-01-28 12:37:00,75.6,66.3,29.91,South,180,17.2,17.2,73,0.00,,,0.00,WUHU216HW,2013-01-28 18:37:00,
2013-01-28 12:42:00,75.2,66.4,29.91,South,180,13.9,17.9,74,0.00,,,0.00,WUHU216HW,2013-01-28 18:42:00,
2013-01-28 12:47:00,74.9,66.4,29.90,South,180,11.6,17.9,75,0.00,,,0.00,WUHU216HW,2013-01-28 18:47:00,
2013-01-28 12:52:00,74.7,66.2,29.90,South,180,16.1,17.0,75,0.00,,,0.00,WUHU216HW,2013-01-28 18:52:00,
2013-01-28 12:57:00,74.5,66.1,29.90,South,180,13.9,17.0,75,0.00,,,0.00,WUHU216HW,2013-01-28 18:57:00,
2013-01-28 13:02:00,74.5,66.1,29.89,SSW,203,12.8,16.3,75,0.00,,,0.00,WUHU216HW,2013-01-28 19:02:00,
2013-01-28 13:07:00,74.5,66.1,29.89,SSW,203,16.3,16.3,75,0.00,,,0.00,WUHU216HW,2013-01-28 19:07:00,
2013-01-28 13:12:00,74.3,65.9,29.89,SSW,203,11.4,16.3,75,0.00,,,0.00,WUHU216HW,2013-01-28 19:12:00,
2013-01-28 13:17:00,74.7,66.2,29.88,South,180,6.9,14.3,75,0.00,,,0.00,WUHU216HW,2013-01-28 19:17:00,
2013-01-28 13:22:00,74.9,66.4,29.88,SSW,203,12.1,14.3,75,0.00,,,0.00,WUHU216HW,2013-01-28 19:22:00,
2013-01-28 13:27:00,74.9,66.4,29.88,South,180,8.1,14.5,75,0.00,,,0.00,WUHU216HW,2013-01-28 19:27:00,
2013-01-28 13:32:00,74.5,66.1,29.88,South,180,11.4,17.9,75,0.00,,,0.00,WUHU216HW,2013-01-28 19:32:00,
2013-01-28 13:37:00,74.9,66.4,29.87,SSW,203,8.5,17.9,75,0.00,,,0.00,WUHU216HW,2013-01-28 19:37:00,
2013-01-28 13:42:00,75.1,66.3,29.87,South,180,8.7,13.4,74,0.00,,,0.00,WUHU216HW,2013-01-28 19:42:00,
2013-01-28 13:47:00,75.1,66.3,29.87,SSW,203,11.9,13.2,74,0.00,,,0.00,WUHU216HW,2013-01-28 19:47:00,
2013-01-28 13:52:00,75.2,66.8,29.86,SSW,203,15.4,17.0,75,0.00,,,0.00,WUHU216HW,2013-01-28 19:52:00,
2013-01-28 13:57:00,75.8,66.5,29.86,SSE,158,7.8,17.0,73,0.00,,,0.00,WUHU216HW,2013-01-28 19:57:00,
2013-01-28 14:02:00,76.1,66.1,29.85,South,180,12.1,15.0,71,0.00,,,0.00,WUHU216HW,2013-01-28 20:02:00,
2013-01-28 14:07:00,76.0,65.9,29.85,South,180,11.4,15.0,71,0.00,,,0.00,WUHU216HW,2013-01-28 20:07:00,
2013-01-28 14:12:00,76.1,66.1,29.85,SSW,203,9.6,15.7,71,0.00,,,0.00,WUHU216HW,2013-01-28 20:12:00,
2013-01-28 14:17:00,76.3,66.2,29.85,South,180,10.5,15.7,71,0.00,,,0.00,WUHU216HW,2013-01-28 20:17:00,
2013-01-28 14:22:00,76.9,66.4,29.85,SSW,203,15.7,15.7,70,0.00,,,0.00,WUHU216HW,2013-01-28 20:22:00,
2013-01-28 14:27:00,77.2,66.3,29.85,South,180,13.4,15.7,69,0.00,,,0.00,WUHU216HW,2013-01-28 20:27:00,
2013-01-28 14:32:00,77.0,66.6,29.85,SSW,203,14.1,14.1,70,0.00,,,0.00,WUHU216HW,2013-01-28 20:32:00,
2013-01-28 14:37:00,76.7,65.8,29.84,SSW,203,15.4,15.4,69,0.00,,,0.00,WUHU216HW,2013-01-28 20:37:00,
2013-01-28 14:42:00,76.5,66.1,29.84,South,180,8.3,16.3,70,0.00,,,0.00,WUHU216HW,2013-01-28 20:42:00,
2013-01-28 14:47:00,76.9,66.0,29.84,South,180,11.4,16.3,69,0.00,,,0.00,WUHU216HW,2013-01-28 20:47:00,
2013-01-28 14:52:00,77.0,66.2,29.83,SSW,203,11.9,12.8,69,0.00,,,0.00,WUHU216HW,2013-01-28 20:52:00,
2013-01-28 14:57:00,76.9,66.0,29.83,South,180,11.4,15.2,69,0.00,,,0.00,WUHU216HW,2013-01-28 20:57:00,
2013-01-28 15:02:00,77.4,66.1,29.83,SSW,203,8.5,15.7,68,0.00,,,0.00,WUHU216HW,2013-01-28 21:02:00,
2013-01-28 15:07:00,77.4,65.6,29.83,South,180,12.8,15.7,67,0.00,,,0.00,WUHU216HW,2013-01-28 21:07:00,
2013-01-28 15:12:00,77.6,65.8,29.83,SSW,203,13.0,15.0,67,0.00,,,0.00,WUHU216HW,2013-01-28 21:12:00,
2013-01-28 15:17:00,77.8,65.5,29.83,South,180,11.9,15.0,66,0.00,,,0.00,WUHU216HW,2013-01-28 21:17:00,
2013-01-28 15:22:00,77.8,65.5,29.83,South,180,12.1,15.0,66,0.00,,,0.00,WUHU216HW,2013-01-28 21:22:00,
2013-01-28 15:27:00,77.9,65.6,29.83,SSE,158,6.9,15.0,66,0.00,,,0.00,WUHU216HW,2013-01-28 21:27:00,
2013-01-28 15:32:00,78.1,65.8,29.83,SW,225,6.0,12.8,66,0.00,,,0.00,WUHU216HW,2013-01-28 21:32:00,
2013-01-28 15:37:00,78.3,65.5,29.83,SSW,203,10.5,11.4,65,0.00,,,0.00,WUHU216HW,2013-01-28 21:37:00,
2013-01-28 15:42:00,78.3,65.5,29.83,SSW,203,8.9,11.4,65,0.00,,,0.00,WUHU216HW,2013-01-28 21:42:00,
2013-01-28 15:47:00,78.5,64.9,29.82,SSW,203,7.4,14.8,63,0.00,,,0.00,WUHU216HW,2013-01-28 21:47:00,
2013-01-28 15:52:00,78.5,64.9,29.82,South,180,10.1,14.8,63,0.00,,,0.00,WUHU216HW,2013-01-28 21:52:00,
2013-01-28 15:57:00,78.5,64.5,29.82,SSW,203,11.4,14.5,62,0.00,,,0.00,WUHU216HW,2013-01-28 21:57:00,
2013-01-28 16:02:00,78.3,64.3,29.82,SSW,203,10.5,14.8,62,0.00,,,0.00,WUHU216HW,2013-01-28 22:02:00,
2013-01-28 16:07:00,78.1,64.5,29.82,SSW,203,10.3,15.0,63,0.00,,,0.00,WUHU216HW,2013-01-28 22:07:00,
2013-01-28 16:12:00,78.1,64.5,29.82,SSW,203,9.8,15.0,63,0.00,,,0.00,WUHU216HW,2013-01-28 22:12:00,
2013-01-28 16:17:00,77.9,64.4,29.82,SSW,203,8.9,15.9,63,0.00,,,0.00,WUHU216HW,2013-01-28 22:17:00,
2013-01-28 16:22:00,77.8,63.7,29.82,South,180,12.8,15.9,62,0.00,,,0.00,WUHU216HW,2013-01-28 22:22:00,
2013-01-28 16:27:00,77.8,64.2,29.82,South,180,12.5,16.6,63,0.00,,,0.00,WUHU216HW,2013-01-28 22:27:00,
2013-01-28 16:32:00,77.6,64.0,29.82,South,180,11.6,16.6,63,0.00,,,0.00,WUHU216HW,2013-01-28 22:32:00,
2013-01-28 16:37:00,77.4,63.8,29.82,SSW,203,10.5,16.1,63,0.00,,,0.00,WUHU216HW,2013-01-28 22:37:00,
2013-01-28 16:42:00,77.4,63.8,29.82,South,180,14.8,16.1,63,0.00,,,0.00,WUHU216HW,2013-01-28 22:42:00,
2013-01-28 16:47:00,77.2,63.6,29.82,South,180,14.5,14.8,63,0.00,,,0.00,WUHU216HW,2013-01-28 22:47:00,
2013-01-28 16:52:00,77.2,64.1,29.82,SSW,203,9.4,15.7,64,0.00,,,0.00,WUHU216HW,2013-01-28 22:52:00,
2013-01-28 16:57:00,77.0,63.9,29.82,SSW,203,12.3,19.0,64,0.00,,,0.00,WUHU216HW,2013-01-28 22:57:00,
2013-01-28 17:02:00,77.0,63.9,29.82,South,180,12.1,19.0,64,0.00,,,0.00,WUHU216HW,2013-01-28 23:02:00,
2013-01-28 17:07:00,76.9,63.7,29.82,South,180,12.3,14.3,64,0.00,,,0.00,WUHU216HW,2013-01-28 23:07:00,
2013-01-28 17:12:00,76.7,63.5,29.82,SSW,203,7.8,15.0,64,0.00,,,0.00,WUHU216HW,2013-01-28 23:12:00,
2013-01-28 17:17:00,76.7,63.5,29.83,South,180,13.2,16.6,64,0.00,,,0.00,WUHU216HW,2013-01-28 23:17:00,
2013-01-28 17:22:00,76.7,63.5,29.82,SSW,203,17.7,17.7,64,0.00,,,0.00,WUHU216HW,2013-01-28 23:22:00,
2013-01-28 17:27:00,76.7,63.5,29.82,SSW,203,7.8,17.7,64,0.00,,,0.00,WUHU216HW,2013-01-28 23:27:00,
2013-01-28 17:32:00,76.5,63.8,29.82,South,180,11.6,12.1,65,0.00,,,0.00,WUHU216HW,2013-01-28 23:32:00,
2013-01-28 17:37:00,76.3,63.6,29.82,SSW,203,7.4,11.6,65,0.00,,,0.00,WUHU216HW,2013-01-28 23:37:00,
2013-01-28 17:42:00,76.1,63.9,29.82,South,180,11.4,11.4,66,0.00,,,0.00,WUHU216HW,2013-01-28 23:42:00,
2013-01-28 17:47:00,76.0,63.7,29.83,SSW,203,8.1,14.5,66,0.00,,,0.00,WUHU216HW,2013-01-28 23:47:00,
2013-01-28 17:52:00,76.0,63.7,29.83,South,180,8.5,14.5,66,0.00,,,0.00,WUHU216HW,2013-01-28 23:52:00,
2013-01-28 17:57:00,76.0,63.7,29.83,SSW,203,8.5,12.1,66,0.00,,,0.00,WUHU216HW,2013-01-28 23:57:00,
2013-01-28 18:02:00,75.8,63.6,29.83,SSE,158,10.7,11.2,66,0.00,,,0.00,WUHU216HW,2013-01-29 00:02:00,
2013-01-28 18:07:00,75.6,63.5,29.83,South,180,8.7,13.6,66,0.00,,,0.00,WUHU216HW,2013-01-29 00:07:00,
2013-01-28 18:12:00,75.6,63.5,29.83,SSE,158,11.0,13.6,66,0.00,,,0.00,WUHU216HW,2013-01-29 00:12:00,
2013-01-28 18:17:00,75.4,63.7,29.83,SSW,203,9.8,12.5,67,0.00,,,0.00,WUHU216HW,2013-01-29 00:17:00,
2013-01-28 18:22:00,75.4,63.7,29.83,SSW,203,9.8,12.5,67,0.00,,,0.00,WUHU216HW,2013-01-29 00:22:00,
2013-01-28 18:27:00,75.2,63.6,29.83,South,180,12.8,12.8,67,0.00,,,0.00,WUHU216HW,2013-01-29 00:27:00,
2013-01-28 18:32:00,75.2,63.6,29.83,South,180,7.6,12.8,67,0.00,,,0.00,WUHU216HW,2013-01-29 00:32:00,
2013-01-28 18:37:00,75.2,63.6,29.83,SSE,158,9.6,13.6,67,0.00,,,0.00,WUHU216HW,2013-01-29 00:37:00,
2013-01-28 18:42:00,75.2,63.6,29.83,South,180,11.2,13.6,67,0.00,,,0.00,WUHU216HW,2013-01-29 00:42:00,
2013-01-28 18:47:00,75.1,63.4,29.83,SSW,203,9.6,12.5,67,0.00,,,0.00,WUHU216HW,2013-01-29 00:47:00,
2013-01-28 18:52:00,75.1,63.4,29.83,South,180,8.3,12.5,67,0.00,,,0.00,WUHU216HW,2013-01-29 00:52:00,
2013-01-28 18:57:00,74.9,63.2,29.83,SSW,203,8.3,13.4,67,0.00,,,0.00,WUHU216HW,2013-01-29 00:57:00,
2013-01-28 19:02:00,74.9,63.6,29.83,South,180,9.2,13.4,68,0.00,,,0.00,WUHU216HW,2013-01-29 01:02:00,
2013-01-28 19:07:00,74.7,63.0,29.83,SE,135,9.4,12.8,67,0.00,,,0.00,WUHU216HW,2013-01-29 01:07:00,
2013-01-28 19:12:00,74.7,63.0,29.83,South,180,11.0,12.8,67,0.00,,,0.00,WUHU216HW,2013-01-29 01:12:00,
2013-01-28 19:17:00,74.7,63.0,29.84,South,180,10.1,12.8,67,0.00,,,0.00,WUHU216HW,2013-01-29 01:17:00,
2013-01-28 19:22:00,74.7,63.0,29.84,South,180,11.0,11.6,67,0.00,,,0.00,WUHU216HW,2013-01-29 01:22:00,
2013-01-28 19:27:00,74.7,63.0,29.84,South,180,4.0,11.4,67,0.00,,,0.00,WUHU216HW,2013-01-29 01:27:00,
2013-01-28 19:32:00,74.5,63.3,29.84,South,180,11.4,11.4,68,0.00,,,0.00,WUHU216HW,2013-01-29 01:32:00,
2013-01-28 19:37:00,74.5,63.3,29.84,SSW,203,9.2,11.9,68,0.00,,,0.00,WUHU216HW,2013-01-29 01:37:00,
2013-01-28 19:42:00,74.5,62.8,29.84,SSE,158,11.0,13.2,67,0.00,,,0.00,WUHU216HW,2013-01-29 01:42:00,
2013-01-28 19:47:00,74.5,63.3,29.84,South,180,5.4,13.2,68,0.00,,,0.00,WUHU216HW,2013-01-29 01:47:00,
2013-01-28 19:52:00,74.3,63.1,29.84,SSW,203,8.7,11.4,68,0.00,,,0.00,WUHU216HW,2013-01-29 01:52:00,
2013-01-28 19:57:00,74.3,63.1,29.84,South,180,8.5,9.4,68,0.00,,,0.00,WUHU216HW,2013-01-29 01:57:00,
2013-01-28 20:02:00,74.2,62.9,29.84,South,180,8.9,14.1,68,0.00,,,0.00,WUHU216HW,2013-01-29 02:02:00,
2013-01-28 20:07:00,74.2,62.9,29.84,South,180,9.8,14.1,68,0.00,,,0.00,WUHU216HW,2013-01-29 02:07:00,
2013-01-28 20:12:00,74.2,62.9,29.85,SSW,203,13.4,13.4,68,0.00,,,0.00,WUHU216HW,2013-01-29 02:12:00,
2013-01-28 20:17:00,74.2,62.9,29.85,South,180,12.8,20.1,68,0.00,,,0.00,WUHU216HW,2013-01-29 02:17:00,
2013-01-28 20:22:00,74.2,63.4,29.85,South,180,9.4,20.1,69,0.00,,,0.00,WUHU216HW,2013-01-29 02:22:00,
2013-01-28 20:27:00,74.0,63.2,29.85,South,180,8.5,14.8,69,0.00,,,0.00,WUHU216HW,2013-01-29 02:27:00,
2013-01-28 20:32:00,74.0,63.2,29.85,SSW,203,12.8,14.8,69,0.00,,,0.00,WUHU216HW,2013-01-29 02:32:00,
2013-01-28 20:37:00,74.0,63.2,29.85,SSW,203,13.2,13.2,69,0.00,,,0.00,WUHU216HW,2013-01-29 02:37:00,
2013-01-28 20:42:00,73.8,63.6,29.84,SSW,203,11.4,14.5,70,0.00,,,0.00,WUHU216HW,2013-01-29 02:42:00,
2013-01-28 20:47:00,73.8,63.6,29.84,SSE,158,12.5,15.7,70,0.00,,,0.00,WUHU216HW,2013-01-29 02:47:00,
2013-01-28 20:52:00,73.8,63.6,29.83,SSE,158,12.1,15.7,70,0.00,,,0.00,WUHU216HW,2013-01-29 02:52:00,
2013-01-28 20:57:00,73.6,63.7,29.83,South,180,10.7,15.4,71,0.00,,,0.00,WUHU216HW,2013-01-29 02:57:00,
2013-01-28 21:02:00,73.6,63.7,29.83,SSW,203,13.4,18.3,71,0.00,,,0.00,WUHU216HW,2013-01-29 03:02:00,
2013-01-28 21:07:00,73.4,63.5,29.83,SSE,158,9.6,18.3,71,0.00,,,0.00,WUHU216HW,2013-01-29 03:07:00,
2013-01-28 21:12:00,73.4,63.5,29.83,South,180,15.7,17.7,71,0.00,,,0.00,WUHU216HW,2013-01-29 03:12:00,
2013-01-28 21:17:00,73.4,63.5,29.83,South,180,13.2,19.5,71,0.00,,,0.00,WUHU216HW,2013-01-29 03:17:00,
2013-01-28 21:22:00,73.4,63.5,29.83,South,180,16.3,19.5,71,0.00,,,0.00,WUHU216HW,2013-01-29 03:22:00,
2013-01-28 21:27:00,73.3,63.4,29.83,South,180,14.5,18.8,71,0.00,,,0.00,WUHU216HW,2013-01-29 03:27:00,
2013-01-28 21:32:00,73.3,63.4,29.83,South,180,18.6,18.8,71,0.00,,,0.00,WUHU216HW,2013-01-29 03:32:00,
2013-01-28 21:37:00,73.1,63.5,29.83,SSE,158,11.0,18.6,72,0.00,,,0.00,WUHU216HW,2013-01-29 03:37:00,
2013-01-28 21:42:00,73.1,63.5,29.83,SSW,203,9.4,15.9,72,0.00,,,0.00,WUHU216HW,2013-01-29 03:42:00,
2013-01-28 21:47:00,72.9,63.8,29.83,South,180,13.4,15.2,73,0.00,,,0.00,WUHU216HW,2013-01-29 03:47:00,
2013-01-28 21:52:00,72.5,63.8,29.83,South,180,11.4,16.6,74,0.00,,,0.00,WUHU216HW,2013-01-29 03:52:00,
2013-01-28 21:57:00,72.4,63.6,29.82,South,180,13.0,19.2,74,0.00,,,0.00,WUHU216HW,2013-01-29 03:57:00,
2013-01-28 22:02:00,72.4,64.0,29.83,SSE,158,13.0,19.2,75,0.00,,,0.00,WUHU216HW,2013-01-29 04:02:00,
2013-01-28 22:07:00,72.2,63.5,29.82,South,180,14.3,18.6,74,0.00,,,0.00,WUHU216HW,2013-01-29 04:07:00,
2013-01-28 22:12:00,72.2,63.5,29.83,South,180,19.0,19.0,74,0.00,,,0.00,WUHU216HW,2013-01-29 04:12:00,
2013-01-28 22:17:00,72.0,63.3,29.83,SSE,158,12.5,19.0,74,0.00,,,0.00,WUHU216HW,2013-01-29 04:17:00,
2013-01-28 22:22:00,72.0,63.3,29.82,South,180,15.9,15.9,74,0.00,,,0.00,WUHU216HW,2013-01-29 04:22:00,
2013-01-28 22:27:00,72.0,63.3,29.82,South,180,13.4,15.9,74,0.00,,,0.00,WUHU216HW,2013-01-29 04:27:00,
2013-01-28 22:32:00,72.0,63.3,29.82,South,180,7.6,17.2,74,0.00,,,0.00,WUHU216HW,2013-01-29 04:32:00,
2013-01-28 22:37:00,71.8,63.1,29.82,South,180,11.0,17.2,74,0.00,,,0.00,WUHU216HW,2013-01-29 04:37:00,
2013-01-28 22:42:00,71.8,63.5,29.82,South,180,9.2,16.3,75,0.00,,,0.00,WUHU216HW,2013-01-29 04:42:00,
2013-01-28 22:47:00,71.6,63.3,29.83,South,180,10.5,14.3,75,0.00,,,0.00,WUHU216HW,2013-01-29 04:47:00,
2013-01-28 22:52:00,71.6,63.6,29.83,South,180,13.2,13.2,76,0.00,,,0.00,WUHU216HW,2013-01-29 04:52:00,
2013-01-28 22:57:00,71.6,63.6,29.83,SSW,203,8.7,13.2,76,0.00,,,0.00,WUHU216HW,2013-01-29 04:57:00,
2013-01-28 23:00:00,71.5,63.5,29.83,South,180,6.9,13.2,76,0.00,,,0.00,WUHU216HW,2013-01-29 05:00:00,
2013-01-28 23:01:00,71.5,63.5,29.83,South,180,6.9,13.2,76,0.00,,,0.00,WUHU216HW,2013-01-29 05:01:00,
2013-01-28 23:02:00,71.5,63.5,29.83,South,180,7.8,13.2,76,0.00,,,0.00,WUHU216HW,2013-01-29 05:02:00,
2013-01-28 23:03:00,71.5,63.5,29.83,South,180,11.4,12.1,76,0.00,,,0.00,WUHU216HW,2013-01-29 05:03:00,
2013-01-28 23:08:00,71.3,63.6,29.83,SSE,158,6.5,11.4,77,0.00,,,0.00,WUHU216HW,2013-01-29 05:08:00,
2013-01-28 23:13:00,71.3,63.6,29.82,South,180,8.7,9.4,77,0.00,,,0.00,WUHU216HW,2013-01-29 05:13:00,
2013-01-28 23:18:00,71.1,63.5,29.82,SSE,158,9.8,10.1,77,0.00,,,0.00,WUHU216HW,2013-01-29 05:18:00,
2013-01-28 23:23:00,71.1,63.9,29.82,South,180,13.0,13.0,78,0.00,,,0.00,WUHU216HW,2013-01-29 05:23:00,
2013-01-28 23:28:00,70.9,63.7,29.82,SSW,203,13.6,13.6,78,0.00,,,0.00,WUHU216HW,2013-01-29 05:28:00,
2013-01-28 23:33:00,70.9,63.7,29.82,South,180,10.5,13.6,78,0.00,,,0.00,WUHU216HW,2013-01-29 05:33:00,
2013-01-28 23:38:00,70.9,64.1,29.82,SSE,158,12.8,13.2,79,0.00,,,0.00,WUHU216HW,2013-01-29 05:38:00,
2013-01-28 23:43:00,70.9,64.1,29.82,South,180,12.1,13.2,79,0.00,,,0.00,WUHU216HW,2013-01-29 05:43:00,
2013-01-28 23:48:00,70.9,64.4,29.82,South,180,10.5,13.6,80,0.00,,,0.00,WUHU216HW,2013-01-29 05:48:00,
2013-01-28 23:53:00,70.9,64.4,29.82,SSW,203,14.1,14.1,80,0.00,,,0.00,WUHU216HW,2013-01-29 05:53:00,
2013-01-28 23:58:00,70.9,64.4,29.82,SSE,158,18.1,18.1,80,0.00,,,0.00,WUHU216HW,2013-01-29 05:58:00,